K0HYD Weather Reports


time (UTC)temp
C
wind
direction
speed
KPH
gust
KPH
rain 1hr
cm
rain 24hr
cm
rain mn
cm
humidity
%
barometer
mb
20260906194242 37 140 0.0 1.6 0.00 0.00 0.00 36 1010.2
20260906192741 37 190 0.0 1.6 0.00 0.00 0.00 36 1010.5
20260906191240 37 132 1.6 1.6 0.00 0.00 0.00 37 1010.7
20260906185739 38 224 0.0 1.6 0.00 0.00 0.00 35 1010.9
20260906184238 37 232 0.0 1.6 0.00 0.00 0.00 36 1011.1
20260906182737 37 238 0.0 8.0 0.00 0.00 0.00 36 1011.4
20260906181236 37 145 3.2 9.7 0.00 0.00 0.00 36 1011.7
20260906175735 36 200 0.0 1.6 0.00 0.00 0.00 37 1012.0
20260906174234 37 215 0.0 8.0 0.00 0.00 0.00 37 1012.2
20260906172733 37 207 0.0 1.6 0.00 0.00 0.00 37 1012.5
20260906165731 37 139 0.0 9.7 0.00 0.00 0.00 36 1013.0
20260906162729 37 205 0.0 1.6 0.00 0.00 0.00 38 1013.3
20260906161228 37 249 0.0 0.0 0.00 0.00 0.00 38 1013.2
20260906155727 36 134 0.0 1.6 0.00 0.00 0.00 41 1013.1
20260906154226 35 263 0.0 1.6 0.00 0.00 0.00 42 1013.1
20260906152726 35 248 0.0 1.6 0.00 0.00 0.00 43 1012.9
20260906151225 34 240 0.0 1.6 0.00 0.00 0.00 45 1012.9
20260906145724 33 256 0.0 1.6 0.00 0.00 0.00 46 1012.9
20260906144222 32 215 0.0 0.0 0.00 0.00 0.00 51 1012.8
20260906141221 30 215 0.0 1.6 0.00 0.00 0.00 58 1012.9
20260906135720 28 224 0.0 0.0 0.00 0.00 0.00 63 1012.9
20260906134219 26 222 0.0 0.0 0.00 0.00 0.00 68 1012.9
20260906132718 25 226 0.0 0.0 0.00 0.00 0.00 73 1012.7
20260906131217 24 147 0.0 0.0 0.00 0.00 0.00 77 1012.5
20260906124215 22 146 0.0 0.0 0.00 0.00 0.00 80 1012.1
20260906122714 22 147 0.0 0.0 0.00 0.00 0.00 81 1011.8
20260906121213 22 146 0.0 0.0 0.00 0.00 0.00 81 1011.6
20260906115712 22 146 0.0 0.0 0.00 0.00 0.00 81 1011.4
20260906114211 22 146 0.0 0.0 0.00 0.00 0.00 80 1011.4
20260906112710 22 146 0.0 0.0 0.00 0.00 0.00 80 1011.2
20260906111209 22 146 0.0 0.0 0.00 0.00 0.00 79 1011.1
20260906104207 22 147 0.0 0.0 0.00 0.00 0.00 78 1011.0
20260906102706 23 146 0.0 0.0 0.00 0.00 0.00 76 1011.0
20260906101205 23 146 0.0 0.0 0.00 0.00 0.00 75 1011.0
20260906095704 23 146 0.0 0.0 0.00 0.00 0.00 73 1010.9
20260906092703 25 147 0.0 0.0 0.00 0.00 0.00 69 1010.9
20260906091201 25 146 0.0 0.0 0.00 0.00 0.00 68 1010.8
20260906085701 25 147 0.0 0.0 0.00 0.00 0.00 67 1010.9
20260906084200 25 146 0.0 1.6 0.00 0.00 0.00 68 1010.7
20260906082659 25 146 0.0 0.0 0.00 0.00 0.00 69 1010.6
20260906081158 25 146 0.0 0.0 0.00 0.00 0.00 69 1010.7
20260906075656 25 147 0.0 0.0 0.00 0.00 0.00 67 1010.7
20260906071154 26 149 0.0 0.0 0.00 0.00 0.00 65 1010.5
20260906065653 26 149 0.0 0.0 0.00 0.00 0.00 65 1010.5
20260906064152 26 149 0.0 0.0 0.00 0.00 0.00 63 1010.5
20260906061150 27 149 0.0 0.0 0.00 0.00 0.00 61 1010.4
20260906055649 26 149 0.0 0.0 0.00 0.00 0.00 62 1010.4
20260906054148 27 150 0.0 0.0 0.00 0.00 0.00 60 1010.5
20260906052647 27 149 0.0 0.0 0.00 0.00 0.00 58 1010.6
20260906045645 30 149 0.0 0.0 0.00 0.00 0.00 53 1010.5
20260906044144 30 149 0.0 1.6 0.00 0.00 0.00 53 1010.3
20260906041142 30 143 0.0 4.8 0.00 0.00 0.00 53 1010.3
20260906035641 30 140 0.0 1.6 0.00 0.00 0.00 53 1010.3
20260906032639 30 140 0.0 1.6 0.00 0.00 0.00 51 1010.1
20260906031138 30 134 0.0 4.8 0.00 0.00 0.00 51 1010.0
20260906025637 30 145 0.0 1.6 0.00 0.00 0.00 50 1009.9
20260906024136 31 136 0.0 1.6 0.00 0.00 0.00 49 1009.8
20260906022635 31 147 0.0 1.6 0.00 0.00 0.00 50 1009.5
20260906021134 30 136 0.0 1.6 0.00 0.00 0.00 50 1009.4
20260906015633 30 139 0.0 0.0 0.00 0.00 0.00 52 1009.3
20260906014132 30 139 0.0 0.0 0.00 0.00 0.00 51 1009.2
20260906012631 31 139 0.0 0.0 0.00 0.00 0.00 50 1009.0
20260906011131 32 138 0.0 0.0 0.00 0.00 0.00 46 1008.7
20260906005630 33 139 0.0 0.0 0.00 0.00 0.00 44 1008.6
20260906004129 33 146 0.0 1.6 0.00 0.00 0.00 43 1008.6
20260906002628 34 142 0.0 3.2 0.00 0.00 0.00 41 1008.4
20260906001127 35 134 0.0 8.0 0.00 0.00 0.00 39 1008.5
20260905235626 35 139 0.0 3.2 0.00 0.00 0.00 38 1008.7
20260905234125 36 136 0.0 8.0 0.00 0.00 0.00 37 1008.6
20260905225622 38 145 0.0 9.7 0.00 0.00 0.00 33 1008.6
20260905224121 38 155 1.6 11.3 0.00 0.00 0.00 33 1008.6
20260905222620 38 142 6.4 9.7 0.00 0.00 0.00 33 1008.5
20260905221119 38 194 0.0 6.4 0.00 0.00 0.00 33 1008.3
20260905215618 38 183 4.8 16.1 0.00 0.00 0.00 34 1008.4
20260905214117 38 145 4.8 9.7 0.00 0.00 0.00 34 1008.2
20260905212616 38 188 0.0 9.7 0.00 0.00 0.00 35 1008.5
20260905205614 38 183 0.0 8.0 0.00 0.00 0.00 35 1008.8
20260905204113 38 65 0.0 9.7 0.00 0.00 0.00 37 1009.0
20260905202612 38 187 3.2 8.0 0.00 0.00 0.00 35 1009.3